sat.trackr.live / text

‹ back to catalog

STARLINK-36580

NORAD 67546 · 2026-014Q

PAYLOAD ACTIVE UNKNOWN

§ Identity

Operator
Country
US
Launch date
2026-01-22
Launch site
AFWTR
Launch vehicle
Mass (kg)
RCS (m²)

Purposes: comms

External: N2YO · Heavens-Above · Gunter

§ Orbital elements

Epoch: 2026-09-19T23:09:51.564960Z

Period
93.91 min
Inclination
97.2845°
Eccentricity
0.0001806
Mean motion
15.33453472 rev/d
Perigee alt
464.3 km
Apogee alt
466.8 km
Semi-major
6,843.7 km
B*
3.9710e-4
RAAN
148.2982°
Arg perigee
92.8376°
Mean anomaly
267.3074°
Rev number
3,855

§ Raw data

STARLINK-365801 67546U 26014Q   26262.96518015  .00012770  00000+0  39710-3 0  99932 67546  97.2845 148.2982 0001806  92.8376 267.3074 15.33453472 38556

JSON: /api/v1/satellites/67546 · /tle

For live sub-satellite position, see the globe view (requires WebGL).

§ Visibility from observer

Set your observer location to see the next 7 days of passes ≥ 10°. The values pass through the URL so the page stays shareable.

No JS? Fill the form by hand. The geolocation button needs JavaScript.